GW3636 Weather Reports


time (UTC)temp
C
wind
direction
speed
KPH
gust
KPH
rain 1hr
cm
rain 24hr
cm
rain mn
cm
humidity
%
barometer
mb
20260508171043 18 191 8.0 29.0 0.00 0.00 0.00 38 1014.7
20260508170545 18 179 17.7 29.0 0.00 0.00 0.00 38 1014.9
20260508170053 18 200 8.0 29.0 0.00 0.00 0.00 38 1015.0
20260508165543 18 236 14.5 29.0 0.00 0.00 0.00 40 1015.0
20260508165043 18 211 12.9 24.1 0.00 0.00 0.00 40 1015.1
20260508164601 18 229 12.9 27.4 0.00 0.00 0.00 41 1015.2
20260508164043 18 189 19.3 27.4 0.00 0.00 0.00 41 1015.3
20260508163547 18 186 12.9 25.7 0.00 0.00 0.00 41 1015.3
20260508163057 17 248 14.5 25.7 0.00 0.00 0.00 42 1015.5
20260508162550 17 208 6.4 32.2 0.00 0.00 0.00 43 1015.4
20260508162046 17 205 16.1 32.2 0.00 0.00 0.00 44 1015.5
20260508161600 17 198 11.3 27.4 0.00 0.00 0.00 43 1015.7
20260508161046 17 162 17.7 30.6 0.00 0.00 0.00 42 1015.8
20260508160549 17 211 19.3 30.6 0.00 0.00 0.00 43 1015.8
20260508160056 17 190 19.3 27.4 0.00 0.00 0.00 44 1015.9
20260508155543 17 253 19.3 27.4 0.00 0.00 0.00 44 1016.1
20260508155043 17 259 14.5 22.5 0.00 0.00 0.00 43 1016.2
20260508154556 17 244 14.5 27.4 0.00 0.00 0.00 42 1016.2
20260508154043 16 211 17.7 29.0 0.00 0.00 0.00 42 1016.2
20260508153543 16 241 19.3 29.0 0.00 0.00 0.00 39 1016.3
20260508153059 16 219 14.5 24.1 0.00 0.00 0.00 43 1016.2
20260508152542 16 186 12.9 19.3 0.00 0.00 0.00 43 1016.1
20260508152042 16 227 14.5 20.9 0.00 0.00 0.00 44 1016.1
20260508151556 16 261 11.3 27.4 0.00 0.00 0.00 44 1016.2
20260508151047 16 246 12.9 27.4 0.00 0.00 0.00 43 1016.3
20260508150547 16 228 14.5 27.4 0.00 0.00 0.00 43 1016.3
20260508150050 15 229 14.5 19.3 0.00 0.00 0.00 44 1016.2
20260508145544 15 244 12.9 29.0 0.00 0.00 0.00 44 1016.2
20260508145045 15 228 16.1 29.0 0.00 0.00 0.00 43 1016.3
20260508144550 15 252 17.7 27.4 0.00 0.00 0.00 43 1016.3
20260508144045 15 223 19.3 29.0 0.00 0.00 0.00 43 1016.3
20260508143546 15 259 16.1 29.0 0.00 0.00 0.00 43 1016.3
20260508143053 15 237 14.5 20.9 0.00 0.00 0.00 44 1016.3
20260508142546 15 203 8.0 16.1 0.00 0.00 0.00 47 1016.2
20260508142043 14 151 8.0 16.1 0.00 0.00 0.00 46 1016.2
20260508141554 14 202 8.0 19.3 0.00 0.00 0.00 48 1016.3
20260508141048 13 235 11.3 19.3 0.00 0.00 0.00 48 1016.3
20260508140548 13 186 11.3 19.3 0.00 0.00 0.00 48 1016.3
20260508140108 13 178 11.3 25.7 0.00 0.00 0.00 50 1016.3
20260508135548 13 167 14.5 25.7 0.00 0.00 0.00 50 1016.4
20260508135048 13 192 14.5 25.7 0.00 0.00 0.00 50 1016.3
20260508134606 12 202 14.5 25.7 0.00 0.00 0.00 51 1016.3
20260508134048 12 198 12.9 19.3 0.00 0.00 0.00 55 1016.3
20260508133548 12 201 11.3 19.3 0.00 0.00 0.00 57 1016.4
20260508133111 11 180 9.7 17.7 0.00 0.00 0.00 59 1016.4
20260508132547 11 165 9.7 16.1 0.00 0.00 0.00 62 1016.4
20260508132047 10 193 6.4 9.7 0.00 0.00 0.00 66 1016.4
20260508131603 10 196 1.6 8.0 0.00 0.00 0.00 69 1016.4
20260508131049 10 0 1.6 6.4 0.00 0.00 0.00 71 1016.4
20260508130553 9 164 0.0 4.8 0.00 0.00 0.00 74 1016.3
20260508125548 8 0 0.0 1.6 0.00 0.00 0.00 76 1016.4
20260508125049 8 0 0.0 1.6 0.00 0.00 0.00 77 1016.5
20260508124556 8 0 0.0 3.2 0.00 0.00 0.00 78 1016.5
20260508124048 7 0 0.0 3.2 0.00 0.00 0.00 81 1016.4
20260508123548 7 0 0.0 3.2 0.00 0.00 0.00 81 1016.5
20260508123104 7 0 0.0 0.0 0.00 0.00 0.00 82 1016.5
20260508122547 6 0 0.0 0.0 0.00 0.00 0.00 83 1016.5
20260508122047 6 0 0.0 0.0 0.00 0.00 0.00 83 1016.4
20260508121557 6 0 0.0 0.0 0.00 0.00 0.00 84 1016.4
20260508121046 5 0 0.0 0.0 0.00 0.00 0.00 86 1016.3
20260508120549 5 0 0.0 0.0 0.00 0.00 0.00 88 1016.4
20260508120100 5 0 0.0 0.0 0.00 0.00 0.00 89 1016.3
20260508115547 4 0 0.0 0.0 0.00 0.00 0.00 91 1016.3
20260508115047 4 0 0.0 0.0 0.00 0.00 0.00 92 1016.2
20260508114604 3 0 0.0 0.0 0.00 0.00 0.00 92 1016.2
20260508114048 3 0 0.0 0.0 0.00 0.00 0.00 92 1016.2
20260508113548 3 0 0.0 0.0 0.00 0.00 0.00 93 1016.2
20260508113102 3 0 0.0 0.0 0.00 0.00 0.00 92 1016.1
20260508112546 2 0 0.0 0.0 0.00 0.00 0.00 92 1016.2
20260508112047 2 0 0.0 1.6 0.00 0.00 0.00 92 1016.2
20260508111601 2 0 0.0 1.6 0.00 0.00 0.00 92 1016.2
20260508111049 2 0 0.0 3.2 0.00 0.00 0.00 92 1016.2
20260508110545 2 0 0.0 3.2 0.00 0.00 0.00 92 1016.1
20260508110100 2 119 0.0 3.2 0.00 0.00 0.00 92 1016.2
20260508105545 2 0 0.0 0.0 0.00 0.00 0.00 92 1016.1
20260508105046 2 0 0.0 0.0 0.00 0.00 0.00 92 1016.0
20260508104557 2 0 0.0 0.0 0.00 0.00 0.00 92 1016.0
20260508104046 2 0 0.0 0.0 0.00 0.00 0.00 92 1016.1
20260508103545 2 0 0.0 0.0 0.00 0.00 0.00 91 1016.0
20260508103054 2 0 0.0 0.0 0.00 0.00 0.00 91 1015.9
20260508102545 2 0 0.0 0.0 0.00 0.00 0.00 91 1015.8
20260508102046 2 0 0.0 0.0 0.00 0.00 0.00 91 1015.8
20260508101558 2 0 0.0 0.0 0.00 0.00 0.00 91 1015.7
20260508101046 2 0 0.0 0.0 0.00 0.00 0.00 91 1015.6
20260508100545 2 0 0.0 0.0 0.00 0.00 0.00 91 1015.6
20260508100056 2 0 0.0 0.0 0.00 0.00 0.00 91 1015.6
20260508095546 2 0 0.0 0.0 0.00 0.00 0.00 91 1015.6
20260508095046 2 0 0.0 0.0 0.00 0.00 0.00 91 1015.7
20260508094601 2 0 0.0 0.0 0.00 0.00 0.00 91 1015.6
20260508094045 2 0 0.0 0.0 0.00 0.00 0.00 91 1015.6
20260508093545 2 0 0.0 0.0 0.00 0.00 0.00 91 1015.7
20260508093055 2 0 0.0 0.0 0.00 0.00 0.00 91 1015.7
20260508092543 2 0 0.0 0.0 0.00 0.00 0.00 91 1015.6
20260508092045 2 0 0.0 0.0 0.00 0.00 0.00 91 1015.6
20260508091614 2 0 0.0 0.0 0.00 0.00 0.00 91 1015.6
20260508091043 2 0 0.0 0.0 0.00 0.00 0.00 91 1015.7
20260508090547 2 0 0.0 0.0 0.00 0.00 0.00 91 1015.6
20260508090106 2 0 0.0 0.0 0.00 0.00 0.00 91 1015.7
20260508085546 2 0 0.0 0.0 0.00 0.00 0.00 91 1015.5
20260508085049 2 0 0.0 0.0 0.00 0.00 0.00 91 1015.6
20260508084557 2 0 0.0 0.0 0.00 0.00 0.00 91 1015.5
20260508084046 2 0 0.0 0.0 0.00 0.00 0.00 91 1015.4
20260508083545 2 0 0.0 0.0 0.00 0.00 0.00 91 1015.5
20260508083054 2 0 0.0 0.0 0.00 0.00 0.00 91 1015.5
20260508082545 2 0 0.0 0.0 0.00 0.00 0.00 90 1015.4
20260508082047 2 0 0.0 0.0 0.00 0.00 0.00 90 1015.4
20260508081558 3 0 0.0 0.0 0.00 0.00 0.00 90 1015.5
20260508081046 3 0 0.0 0.0 0.00 0.00 0.00 90 1015.5
20260508080542 3 0 0.0 0.0 0.00 0.00 0.00 90 1015.4
20260508080054 3 0 0.0 0.0 0.00 0.00 0.00 90 1015.5
20260508075547 3 0 0.0 0.0 0.00 0.00 0.00 90 1015.5
20260508075048 3 0 0.0 0.0 0.00 0.00 0.00 90 1015.5
20260508074554 3 0 0.0 0.0 0.00 0.00 0.00 89 1015.4
20260508074046 3 0 0.0 4.8 0.00 0.00 0.00 89 1015.5
20260508073547 3 0 0.0 4.8 0.00 0.00 0.00 89 1015.5
20260508073055 3 188 1.6 4.8 0.00 0.00 0.00 89 1015.5
20260508072545 3 188 0.0 4.8 0.00 0.00 0.00 89 1015.5
20260508072045 3 0 0.0 4.8 0.00 0.00 0.00 89 1015.5
20260508071554 3 188 3.2 4.8 0.00 0.00 0.00 89 1015.5
20260508071045 3 188 0.0 3.2 0.00 0.00 0.00 89 1015.6
20260508070545 3 188 0.0 0.0 0.00 0.00 0.00 88 1015.6
20260508070100 3 0 0.0 0.0 0.00 0.00 0.00 88 1015.6
20260508065546 3 0 0.0 0.0 0.00 0.00 0.00 88 1015.6
20260508065046 3 0 0.0 0.0 0.00 0.00 0.00 88 1015.4
20260508064552 3 0 0.0 0.0 0.00 0.00 0.00 88 1015.5
20260508064047 3 0 0.0 0.0 0.00 0.00 0.00 88 1015.4
20260508063547 3 0 0.0 3.2 0.00 0.00 0.00 88 1015.5
20260508063123 3 0 0.0 4.8 0.00 0.00 0.00 88 1015.6
20260508062546 4 188 1.6 4.8 0.00 0.00 0.00 87 1015.6
20260508062047 4 188 0.0 4.8 0.00 0.00 0.00 87 1015.7
20260508061555 4 188 1.6 6.4 0.00 0.00 0.00 87 1015.7
20260508061046 4 188 3.2 6.4 0.00 0.00 0.00 87 1015.8
20260508060546 4 175 0.0 0.0 0.00 0.00 0.00 86 1015.8
20260508060056 4 0 0.0 3.2 0.00 0.00 0.00 86 1015.8
20260508055547 4 0 0.0 4.8 0.00 0.00 0.00 86 1015.8
20260508055047 4 175 1.6 9.7 0.00 0.00 0.00 85 1015.7
20260508054555 5 0 4.8 9.7 0.00 0.00 0.00 85 1015.8
20260508054046 5 200 4.8 8.0 0.00 0.00 0.00 85 1015.8
20260508053547 5 207 4.8 8.0 0.00 0.00 0.00 85 1015.7
20260508053059 5 178 3.2 6.4 0.00 0.00 0.00 85 1015.6
20260508052546 5 190 3.2 6.4 0.00 0.00 0.00 84 1015.7
20260508052045 5 197 3.2 6.4 0.00 0.00 0.00 84 1015.7
20260508051618 5 181 1.6 3.2 0.00 0.00 0.00 84 1015.7
20260508051046 5 0 0.0 6.4 0.00 0.00 0.00 83 1015.6
20260508050545 5 0 0.0 6.4 0.00 0.00 0.00 83 1015.5
20260508050058 5 186 4.8 6.4 0.00 0.00 0.00 83 1015.4
20260508045546 5 209 3.2 6.4 0.00 0.00 0.00 83 1015.4
20260508045048 5 194 3.2 6.4 0.00 0.00 0.00 83 1015.4
20260508044554 5 194 4.8 6.4 0.00 0.00 0.00 82 1015.5
20260508044046 5 194 3.2 6.4 0.00 0.00 0.00 82 1015.6
20260508043545 6 194 3.2 6.4 0.00 0.00 0.00 82 1015.5
20260508043056 6 194 3.2 4.8 0.00 0.00 0.00 81 1015.5
20260508042547 6 194 3.2 6.4 0.00 0.00 0.00 81 1015.6
20260508042047 6 186 3.2 6.4 0.00 0.00 0.00 80 1015.6
20260508041554 6 190 4.8 6.4 0.00 0.00 0.00 80 1015.6
20260508041047 6 190 4.8 6.4 0.00 0.00 0.00 79 1015.6
20260508040547 6 191 0.0 6.4 0.00 0.00 0.00 79 1015.6
20260508040056 6 0 1.6 8.0 0.00 0.00 0.00 78 1015.6
20260508035546 6 198 4.8 8.0 0.00 0.00 0.00 78 1015.6
20260508035046 6 200 4.8 6.4 0.00 0.00 0.00 78 1015.5
20260508034552 7 196 4.8 6.4 0.00 0.00 0.00 77 1015.5
20260508034046 7 184 3.2 6.4 0.00 0.00 0.00 75 1015.5
20260508033545 7 198 3.2 4.8 0.00 0.00 0.00 74 1015.5
20260508033055 7 188 3.2 4.8 0.00 0.00 0.00 75 1015.6
20260508032546 7 0 0.0 3.2 0.00 0.00 0.00 73 1015.6
20260508032046 7 0 0.0 4.8 0.00 0.00 0.00 73 1015.6
20260508031551 7 188 1.6 8.0 0.00 0.00 0.00 72 1015.7
20260508031045 8 185 3.2 8.0 0.00 0.00 0.00 71 1015.7
20260508030547 8 188 4.8 8.0 0.00 0.00 0.00 69 1015.6
20260508030051 8 197 3.2 6.4 0.00 0.00 0.00 67 1015.5
20260508025547 8 0 0.0 0.0 0.00 0.00 0.00 66 1015.5
20260508025046 9 0 0.0 0.0 0.00 0.00 0.00 65 1015.5
20260508024552 9 0 0.0 0.0 0.00 0.00 0.00 63 1015.5
20260508024047 10 0 0.0 0.0 0.00 0.00 0.00 61 1015.4
20260508023547 10 0 0.0 1.6 0.00 0.00 0.00 62 1015.4
20260508023052 10 0 0.0 1.6 0.00 0.00 0.00 59 1015.4
20260508022545 10 0 0.0 0.0 0.00 0.00 0.00 58 1015.3
20260508022048 10 0 0.0 1.6 0.00 0.00 0.00 58 1015.3
20260508021555 10 0 0.0 3.2 0.00 0.00 0.00 54 1015.2
20260508021045 10 21 0.0 3.2 0.00 0.00 0.00 54 1015.2
20260508020545 11 21 0.0 4.8 0.00 0.00 0.00 52 1015.1
20260508020104 11 21 0.0 6.4 0.00 0.00 0.00 49 1015.0
20260508015545 11 21 1.6 6.4 0.00 0.00 0.00 50 1015.0
20260508015045 11 30 3.2 8.0 0.00 0.00 0.00 50 1014.9
20260508014555 12 296 4.8 8.0 0.00 0.00 0.00 44 1014.9
20260508014045 12 292 4.8 6.4 0.00 0.00 0.00 44 1014.9
20260508013545 12 292 3.2 6.4 0.00 0.00 0.00 44 1014.7
20260508013055 12 292 3.2 6.4 0.00 0.00 0.00 44 1014.6
20260508012548 12 292 4.8 6.4 0.00 0.00 0.00 43 1014.5
20260508012047 12 291 4.8 6.4 0.00 0.00 0.00 42 1014.4
20260508011556 12 301 4.8 6.4 0.00 0.00 0.00 42 1014.3
20260508011046 12 309 4.8 6.4 0.00 0.00 0.00 41 1014.2
20260508010546 13 304 4.8 8.0 0.00 0.00 0.00 40 1014.2
20260508005545 13 293 4.8 8.0 0.00 0.00 0.00 40 1014.0
20260508005046 13 311 4.8 8.0 0.00 0.00 0.00 39 1014.1
20260508004555 13 300 4.8 9.7 0.00 0.00 0.00 38 1014.1
20260508004047 13 322 4.8 9.7 0.00 0.00 0.00 38 1014.1
20260508003545 13 315 6.4 11.3 0.00 0.00 0.00 38 1014.0
20260508003103 13 304 4.8 12.9 0.00 0.00 0.00 38 1014.1
20260508002548 13 308 6.4 12.9 0.00 0.00 0.00 37 1014.1
20260508002048 14 296 8.0 14.5 0.00 0.00 0.00 36 1014.0
20260508001556 14 299 9.7 19.3 0.00 0.00 0.00 36 1013.8
20260508001045 14 309 11.3 19.3 0.00 0.00 0.00 35 1013.7
20260508000547 14 320 9.7 17.7 0.00 0.00 0.00 35 1013.6
20260508000054 15 329 9.7 24.1 0.00 0.00 0.00 35 1013.7
20260507235548 15 331 16.1 24.1 0.00 0.00 0.00 33 1013.6
20260507235047 15 312 11.3 24.1 0.00 0.00 0.00 34 1013.6
20260507234557 15 322 11.3 24.1 0.00 0.00 0.00 34 1013.6
20260507234046 15 338 14.5 24.1 0.00 0.00 0.00 33 1013.5
20260507233546 15 334 9.7 20.9 0.00 0.00 0.00 35 1013.4
20260507233055 15 328 14.5 24.1 0.00 0.00 0.00 34 1013.3
20260507232545 15 338 12.9 24.1 0.00 0.00 0.00 34 1013.3
20260507232046 15 12 16.1 24.1 0.00 0.00 0.00 33 1013.3
20260507231553 15 333 17.7 22.5 0.00 0.00 0.00 32 1013.3
20260507231045 15 296 16.1 25.7 0.00 0.00 0.00 33 1013.2
20260507230546 16 311 17.7 25.7 0.00 0.00 0.00 32 1013.2
20260507230109 16 285 14.5 25.7 0.00 0.00 0.00 32 1013.1
20260507225545 16 319 17.7 29.0 0.00 0.00 0.00 31 1013.2
20260507225046 16 292 20.9 29.0 0.00 0.00 0.00 30 1013.2
20260507224555 16 289 12.9 20.9 0.00 0.00 0.00 33 1013.2
20260507224048 16 276 14.5 20.9 0.00 0.00 0.00 30 1013.2
20260507223547 16 293 16.1 20.9 0.00 0.00 0.00 30 1013.2
20260507223159 16 333 11.3 24.1 0.00 0.00 0.00 30 1013.2
20260507222547 16 296 16.1 27.4 0.00 0.00 0.00 30 1013.2
20260507222046 16 293 19.3 33.8 0.00 0.00 0.00 30 1013.2
20260507221557 16 316 19.3 30.6 0.00 0.00 0.00 30 1013.2
20260507221046 16 287 20.9 27.4 0.00 0.00 0.00 30 1013.1
20260507220545 16 280 16.1 29.0 0.00 0.00 0.00 30 1013.1
20260507220055 16 278 20.9 32.2 0.00 0.00 0.00 30 1013.0
20260507215546 16 283 22.5 32.2 0.00 0.00 0.00 30 1013.0
20260507215046 16 263 16.1 27.4 0.00 0.00 0.00 32 1012.9
20260507214558 16 315 16.1 32.2 0.00 0.00 0.00 34 1012.8
20260507214045 16 250 16.1 32.2 0.00 0.00 0.00 34 1012.8
20260507213547 16 252 19.3 29.0 0.00 0.00 0.00 35 1012.8
20260507213124 16 310 19.3 32.2 0.00 0.00 0.00 33 1012.8
20260507212545 16 287 17.7 32.2 0.00 0.00 0.00 34 1012.7
20260507212047 16 298 22.5 37.0 0.00 0.00 0.00 33 1012.8
20260507211553 16 277 20.9 35.4 0.00 0.00 0.00 32 1012.5
20260507211048 16 261 19.3 30.6 0.00 0.00 0.00 33 1012.5
20260507210549 16 334 17.7 38.6 0.00 0.00 0.00 34 1012.6
20260507205548 16 265 17.7 38.6 0.00 0.00 0.00 35 1012.7
20260507205053 16 323 14.5 32.2 0.00 0.00 0.00 36 1012.5
20260507204553 16 298 20.9 33.8 0.00 0.00 0.00 34 1012.5
20260507204046 16 304 22.5 33.8 0.00 0.00 0.00 34 1012.5
20260507203548 16 272 22.5 32.2 0.00 0.00 0.00 35 1012.3
20260507203054 16 316 16.1 35.4 0.00 0.00 0.00 36 1012.4
20260507202549 16 325 16.1 35.4 0.00 0.00 0.00 35 1012.4
20260507202050 16 308 19.3 33.8 0.00 0.00 0.00 35 1012.5
20260507201604 16 317 20.9 37.0 0.00 0.00 0.00 36 1012.4
20260507201047 16 300 25.7 37.0 0.00 0.00 0.00 36 1012.4
20260507200546 16 325 19.3 27.4 0.00 0.00 0.00 36 1012.4
20260507200108 16 323 14.5 25.7 0.00 0.00 0.00 36 1012.4
20260507195547 17 248 11.3 33.8 0.00 0.00 0.00 38 1012.4
20260507195047 16 276 22.5 33.8 0.00 0.00 0.00 36 1012.4
20260507194554 16 319 14.5 30.6 0.00 0.00 0.00 37 1012.5
20260507194050 16 294 17.7 29.0 0.00 0.00 0.00 37 1012.6
20260507193547 16 277 9.7 29.0 0.00 0.00 0.00 39 1012.5
20260507193055 16 248 19.3 29.0 0.00 0.00 0.00 38 1012.5
20260507192546 16 291 17.7 37.0 0.00 0.00 0.00 38 1012.5
20260507192046 16 223 19.3 37.0 0.00 0.00 0.00 38 1012.5
20260507191553 16 343 14.5 29.0 0.00 0.00 0.00 38 1012.7
20260507191046 16 341 19.3 25.7 0.00 0.00 0.00 38 1012.8
20260507190545 16 291 14.5 25.7 0.00 0.00 0.00 38 1012.8
20260507190053 16 324 8.0 25.7 0.00 0.00 0.00 41 1012.7
20260507185546 16 327 11.3 25.7 0.00 0.00 0.00 41 1012.8
20260507185049 16 306 19.3 24.1 0.00 0.00 0.00 41 1013.2
20260507184554 16 307 12.9 30.6 0.00 0.00 0.00 41 1013.1
20260507184047 16 303 17.7 30.6 0.00 0.00 0.00 39 1013.2
20260507183550 16 243 9.7 30.6 0.00 0.00 0.00 41 1012.9
20260507183056 16 294 11.3 24.1 0.00 0.00 0.00 42 1012.8
20260507182547 16 253 16.1 24.1 0.00 0.00 0.00 43 1013.1
20260507182047 16 342 8.0 27.4 0.00 0.00 0.00 42 1013.1
20260507181604 16 263 17.7 27.4 0.00 0.00 0.00 42 1013.3
20260507181049 16 223 17.7 27.4 0.00 0.00 0.00 40 1013.3
20260507180547 16 311 17.7 27.4 0.00 0.00 0.00 40 1013.3
20260507180056 16 297 14.5 40.2 0.00 0.00 0.00 41 1013.3
20260507175548 16 290 17.7 40.2 0.00 0.00 0.00 42 1013.3
20260507175046 15 331 11.3 41.8 0.00 0.00 0.00 43 1013.3
20260507174602 15 342 19.3 41.8 0.00 0.00 0.00 42 1013.4
20260507174045 16 285 9.7 29.0 0.00 0.00 0.00 42 1013.4
20260507173546 15 310 19.3 29.0 0.00 0.00 0.00 41 1013.5
20260507173100 15 293 17.7 27.4 0.00 0.00 0.00 40 1013.7
20260507172550 15 336 9.7 27.4 0.00 0.00 0.00 44 1013.6
20260507172047 15 207 17.7 27.4 0.00 0.00 0.00 42 1013.6
20260507171603 15 294 16.1 29.0 0.00 0.00 0.00 44 1013.6